Portada
METAR-TAF:

METAR-TAF

Aeroports :

Fond du Lac, Wisconsin, Estats Units d'Amèrica

Fond Du Lac County Airport

latitud: 43-46-12N, longitud: 088-29-11W, altitud: 246 m

Observació

L'informe es va fer fa 11 minuts, a les 04:53 UTC
Vent 11 kt del Nord-Est
Temperatura 8°C
Humitat 57%
Pressió 1020 hPa
Visibilitat: 16.1 km
Cel ennuvolat a una alçada de 8000 ft
Cel cobert a una alçada de 10000 ft

METAR: KFLD 250453Z AUTO 04011KT 10SM BKN080 OVC100 08/00 A3013 RMK AO2 SLP203 T00830000

Hora: 00:04 (05:04 UTC)


TAF: manca

Observacions i pronòstics meteorològics de més de 4000 aeroports (METAR i TAF).

Les estacions disponibles són els punts grocs i vermells al mapa.

Posi el ratolí al punt desitjat per veure el nom de l'estació.

Feu clic per veure les observacions i els pronòstics meteorològics.

Per canviar el mapa: feu clic els botons verds amb una creu de color negre per apropar; al botó verd amb un guió per allunyar la imatge; o en les fletxes verdes per a mapes adjacents.


METAR-TAF: